Location: Carri�res
(48.9069°N, 2.1792°E)
Time: 03:25:41
(UTC+00:00)

EXPRESS MD2 - Pass Details

Date: 17 January 2021
Orbit: 260 x 3983 km, 49.9° (Epoch: 26 February)

Event Time Altitude Azimuth Distance (km) Brightness Sun altitude
Rises 17:58:50 0° 284° (WNW) 5,480 9.5 -14.9°
Reaches altitude 10° 18:03:24 10° 284° (WNW) 3,824 8.6 -15.7°
Maximum altitude 18:12:04 80° 200° (SSW) 866 4.3 -17.1°
Enters shadow 18:14:39 26° 115° (ESE) 1,298 4.7 -17.5°
